Regional Weather Roundup
Issued by NWS Kansas City/Pleasant Hill, MO

Home | Current Version | Previous Version | Graphics & Text | Print | Product List | Glossary Off
Versions: 1 2 3 4 5 6 7 8 9 10 11 12 13 14 15 16 17 18 19 20 21 22 23 24 25 26 27 28 29 30 31 32 33 34 35 36 37 38 39 40 41 42 43 44 45 46 47 48 49 50

000
ASUS43 KEAX 220610
RWREAX

WEATHER ROUNDUP FOR EASTERN KANSAS AND NORTHWEST MISSOURI
NATIONAL WEATHER SERVICE KANSAS CITY/PLEASANT HILL MO
1200 AM CST WED NOV 22 2017

KSZ040-057-103>105-MOZ028-029-037-043-220700-
...KANSAS CITY METROPOLITAN AREA...

CITY           SKY/WX    TMP DP  RH WIND       PRES   REMARKS
K.C. INTL      CLEAR     24  15  68 NW8       30.38F WCI  15
6HR MIN TEMP:  24; 6HR MAX TEMP:  33;

K.C. DOWNTOWN  CLOUDY    29  14  53 VRB5      30.40S WCI  24
6HR MIN TEMP:  29; 6HR MAX TEMP:  37;

LEES SUMMIT    CLOUDY    27  15  61 N8        30.39R WCI  19
6HR MIN TEMP:  27; 6HR MAX TEMP:  37;

OLATHE - IXD   CLOUDY    24  16  71 NW8       30.40R WCI  15
6HR MIN TEMP:  23; 6HR MAX TEMP:  35;

OLATHE - OJC   CLOUDY    27  15  61 N7        30.39R WCI  19
6HR MIN TEMP:  27; 6HR MAX TEMP:  36;

LAWRENCE       CLOUDY    23  15  71 NW6       30.42S WCI  16

$$

MOZ001>008-011>017-020>025-030>033-038>040-044>046-053-054-220700-
...NORTHERN AND CENTRAL MISSOURI...

CITY           SKY/WX    TMP DP  RH WIND       PRES   REMARKS
ST. JOSEPH     CLOUDY    22  13  68 N6        30.41F WCI  14
6HR MIN TEMP:  22; 6HR MAX TEMP:  31;

MOSBY          CLOUDY    27  16  63 NW6       30.39F WCI  20
WARRENSBURG    CLOUDY    28  19  69 NW6       30.39R WCI  22
WHITEMAN AFB   CLEAR     28  17  63 NW9       30.33R WCI  19
6HR MIN TEMP:  27; 6HR MAX TEMP:  39;

CLINTON        CLOUDY    27  19  74 MISG      30.38R
SEDALIA        CLOUDY    28  21  75 NW10      30.37R WCI  19
6HR MIN TEMP:  28; 6HR MAX TEMP:  41;

WARSAW         NOT AVBL
CHILLICOTHE      N/A     26  15  63 CALM      30.38R
6HR MIN TEMP:  25; 6HR MAX TEMP:  34;

KIRKSVILLE     CLOUDY    23  16  74 N7        30.34R WCI  15
6HR MIN TEMP:  23; 6HR MAX TEMP:  32;


$$

MOZ041-047>049-056>058-063>065-088>090-097-220700-
...EASTERN AND SOUTHERN MISSOURI...

CITY           SKY/WX    TMP DP  RH WIND       PRES   REMARKS
ST. LOUIS INTL CLEAR     30  20  66 N8        30.29S WCI  22
6HR MIN TEMP:  30; 6HR MAX TEMP:  43;

SPIRIT OF STL  CLEAR     31  20  63 NW5       30.31R WCI  26
COLUMBIA       CLEAR     28  19  69 NW8       30.32F WCI  20
JEFFERSON CITY CLEAR     30  19  63 NW5       30.35S WCI  25
ROLLA          CLEAR     28  19  69 N7        30.30F WCI  21
OSAGE BEACH    CLEAR     30  19  63 N5        30.33F WCI  25
SPRINGFIELD    CLEAR     31  19  61 N9        30.29F WCI  23
BRANSON        CLEAR     36  18  48 N8        30.29S WCI  29
JOPLIN         CLEAR     30  21  69 N7        30.34F WCI  23
WEST PLAINS    CLEAR     36  18  48 N15G24    30.26R WCI  27

$$

IAZ060-094-KSZ022-034>040-054-083-096-NEZ052-066-093-220700-
...KANSAS...SOUTHEAST NEBRASKA AND IOWA...

CITY           SKY/WX    TMP DP  RH WIND       PRES   REMARKS
TOPEKA         CLOUDY    25  15  66 NW7       30.43R WCI  17
6HR MIN TEMP:  25; 6HR MAX TEMP:  34;

MANHATTAN      CLOUDY    22  13  68 NW3       30.44S
EMPORIA        CLOUDY    23  13  65 N7        30.41R WCI  15
CHANUTE        CLOUDY    29  16  58 N9        30.39R WCI  20
WICHITA        CLOUDY    30  15  53 N8        30.41R WCI  22
OMAHA          CLOUDY    19  10  68 NW7       30.43R WCI  10
LINCOLN        CLEAR     17  10  74 MISG      30.44S
FALLS CITY     CLOUDY    20  13  74 NW8       30.42R WCI  10
LAMONI         CLOUDY    21  12  68 N8        30.34S WCI  11
DES MOINES     CLOUDY    23  12  62 NW8       30.36S WCI  14

$$




USA.gov is the U.S. government's official web portal to all federal, state and local government web resources and services.